BERGEN / FLESLAND current weather conditions

sailwx.info

Wind from 130 at 2 knots

Air temperature 4.0° C
Dewpoint 1.0° C

Last reported at 2015-Apr-19 03:20 UTC.
Time now 2015-Apr-19 04:37 UTC

Location: N 60°17' E 005°14'.
View on Google Maps.

See reports from other nearby stations

  
Tides and Currents Weather Stations Pressure Air Temp Water Temp Dewpoint Dewpoint Depression Visibility Wind Speed Wind Dir Waves Ship Positions
date/time (UTC)wind fromknots sea level pressurealtimeterstation pressurevisibilityair tempwater tempwave heightnotes
2015-Apr-19 03:20 130 2 4.0
2015-Apr-19 02:50 060 5 5.4 5.0
2015-Apr-19 01:50 040 7 5.4 5.0
2015-Apr-19 00:50 340 8 5.4 5.0
2015-Apr-18 23:50 010 7 5.4 5.0
2015-Apr-18 22:50 020 6 5.4 6.0
2015-Apr-18 21:50 360 10 5.4 6.0
2015-Apr-18 21:20 350 13 5.4 6.0
2015-Apr-18 20:50 050 3 5.4 6.0
2015-Apr-18 20:20 350 7 5.4 6.0
2015-Apr-18 19:50 360 8 5.4 7.0
2015-Apr-18 19:20 350 10 5.4 8.0
2015-Apr-18 18:50 340 10 5.4 8.0
2015-Apr-18 18:20 300 9 5.4 9.0
2015-Apr-18 17:50 310 13 5.4 9.0
2015-Apr-18 17:20 320 12 5.4 9.0
2015-Apr-18 16:50 320 11 5.4 9.0
2015-Apr-18 16:20 330 13 5.4 9.0
2015-Apr-18 15:50 330 15 5.410.0
2015-Apr-18 15:20 310 16 5.410.0
2015-Apr-18 14:50 330 14 5.410.0
2015-Apr-18 14:20 330 16 5.410.0
2015-Apr-18 13:50 330 15 5.410.0
2015-Apr-18 13:20 330 15 5.410.0
2015-Apr-18 12:50 330 15 5.410.0
2015-Apr-18 12:20 330 13 5.410.0
2015-Apr-18 11:50 330 15 5.4 9.0
2015-Apr-18 11:20 330 16 5.4 9.0
2015-Apr-18 10:50 330 15 gusting 25 5.4 8.0
2015-Apr-18 10:20 330 15 5.4 9.0
2015-Apr-18 09:50 330 12 5.4 9.0
2015-Apr-18 09:20 350 10 5.4 8.0
2015-Apr-18 08:50 010 11 5.4 8.0
2015-Apr-18 08:20 010 9 5.4 7.0
2015-Apr-18 07:50 010 7 5.4 6.0
2015-Apr-18 07:20 340 9 5.4 5.0
2015-Apr-18 06:50 350 6 5.4 4.0
2015-Apr-18 06:20 350 6 5.4 4.0
2015-Apr-18 05:50 040 4 5.4 4.0
2015-Apr-18 05:20 010 6 5.4 3.0
2015-Apr-18 04:50 010 6 5.4 3.0
2015-Apr-18 04:20 010 7 5.4 3.0
2015-Apr-18 03:50 040 5 5.4 2.0
2015-Apr-18 03:20 360 5 5.4 3.0
2015-Apr-18 02:50 2.0
2015-Apr-18 01:50 2.0
2015-Apr-18 00:50 020 4 3.0
2015-Apr-17 23:50 030 5 4.0
2015-Apr-17 22:50 350 6 4.0
2015-Apr-17 22:20 350 3 4.0
2015-Apr-17 21:50 4.0
2015-Apr-17 21:20 010 6 5.0
2015-Apr-17 20:50 340 8 5.0
2015-Apr-17 20:20 320 6 6.0
2015-Apr-17 19:50 320 7 6.0
2015-Apr-17 19:20 320 9 6.0
2015-Apr-17 18:50 320 9 7.0
2015-Apr-17 18:20 320 12 gusting 22 7.0
2015-Apr-17 17:50 330 10 8.0
2015-Apr-17 17:20 330 11 9.0
2015-Apr-17 16:50 320 11 9.0
2015-Apr-17 16:20 320 10 10.0
2015-Apr-17 15:50 330 10 10.0
2015-Apr-17 15:20 320 10 10.0
2015-Apr-17 14:50 330 11 10.0
2015-Apr-17 14:20 330 10 10.0
2015-Apr-17 13:50 330 10 11.0
2015-Apr-17 13:20 340 8 11.0
2015-Apr-17 12:50 330 8 10.0
2015-Apr-17 12:20 310 8 10.0
2015-Apr-17 11:50 320 9 10.0
2015-Apr-17 11:20 310 7 9.0
2015-Apr-17 10:50 310 7 8.0
2015-Apr-17 10:20 310 7 8.0
2015-Apr-17 09:50 320 7 7.0
2015-Apr-17 09:20 330 6 7.0
2015-Apr-17 08:50 330 9 7.0
2015-Apr-17 08:20 360 6 6.0
2015-Apr-17 07:50 320 6 5.0
2015-Apr-17 07:20 340 5 5.0
2015-Apr-17 06:50 010 7 4.0
2015-Apr-17 06:20 360 6 3.0
2015-Apr-17 05:50 350 7 3.0
2015-Apr-17 05:20 330 8 2.0
2015-Apr-17 04:50 330 7 2.0
2015-Apr-17 04:20 2.0